Year,Month,Day,Hour,Minute,Value (Times are PST for windspeed in km/hr)
2021,04,09,00,00,2.00
2021,04,09,00,01,2.40
2021,04,09,00,02,2.30
2021,04,09,00,03,2.80
2021,04,09,00,04,2.10
2021,04,09,00,05,2.40
2021,04,09,00,06,2.10
2021,04,09,00,07,1.90
2021,04,09,00,08,2.30
2021,04,09,00,09,2.10
2021,04,09,00,10,3.10
2021,04,09,00,11,2.40
2021,04,09,00,12,2.70
2021,04,09,00,13,3.00
2021,04,09,00,14,3.40
2021,04,09,00,15,2.10
2021,04,09,00,16,2.30
2021,04,09,00,17,2.40
2021,04,09,00,18,2.90
2021,04,09,00,19,2.70
2021,04,09,00,20,0.80
2021,04,09,00,21,1.40
2021,04,09,00,22,2.00
2021,04,09,00,23,1.50
2021,04,09,00,24,1.80
2021,04,09,00,25,3.30
2021,04,09,00,26,3.40
2021,04,09,00,27,2.40
2021,04,09,00,28,1.00
2021,04,09,00,29,1.40
2021,04,09,00,30,1.30
2021,04,09,00,31,1.70
2021,04,09,00,32,0.60
2021,04,09,00,33,1.60
2021,04,09,00,34,0.50
2021,04,09,00,35,1.00
2021,04,09,00,36,1.90
2021,04,09,00,37,2.40
2021,04,09,00,38,2.60
2021,04,09,00,39,3.80
2021,04,09,00,40,3.60
2021,04,09,00,41,3.10
2021,04,09,00,42,3.00
2021,04,09,00,43,2.90
2021,04,09,00,44,2.00
2021,04,09,00,45,2.00
2021,04,09,00,46,1.90
2021,04,09,00,47,2.10
2021,04,09,00,48,3.20
2021,04,09,00,49,2.40
2021,04,09,00,50,2.40
2021,04,09,00,51,1.60
2021,04,09,00,52,1.30
2021,04,09,00,53,2.30
2021,04,09,00,54,2.40
2021,04,09,00,55,2.70
2021,04,09,00,56,2.10
2021,04,09,00,57,1.60
2021,04,09,00,58,1.10
2021,04,09,00,59,2.00
2021,04,09,01,00,2.10
2021,04,09,01,01,1.60
2021,04,09,01,02,1.30
2021,04,09,01,03,1.70
2021,04,09,01,04,1.70
2021,04,09,01,05,0.70
2021,04,09,01,06,0.20
2021,04,09,01,07,2.30
2021,04,09,01,08,2.20
2021,04,09,01,09,2.00
2021,04,09,01,10,1.30
2021,04,09,01,11,2.40
2021,04,09,01,12,2.00
2021,04,09,01,13,2.80
2021,04,09,01,14,2.00
2021,04,09,01,15,1.10
2021,04,09,01,16,1.30
2021,04,09,01,17,1.30
2021,04,09,01,18,0.50
2021,04,09,01,19,1.40
2021,04,09,01,20,2.10
2021,04,09,01,21,1.60
2021,04,09,01,22,2.00
2021,04,09,01,23,1.50
2021,04,09,01,24,0.60
2021,04,09,01,25,1.20
2021,04,09,01,26,1.00
2021,04,09,01,27,0.50
2021,04,09,01,28,0.00
2021,04,09,01,29,0.00
2021,04,09,01,30,0.00
2021,04,09,01,31,0.00
2021,04,09,01,32,0.00
2021,04,09,01,33,0.00
2021,04,09,01,34,0.00
2021,04,09,01,35,1.40
2021,04,09,01,36,2.70
2021,04,09,01,37,0.70
2021,04,09,01,38,1.40
2021,04,09,01,39,1.40
2021,04,09,01,40,1.10
2021,04,09,01,41,1.60
2021,04,09,01,42,1.10
2021,04,09,01,43,1.00
2021,04,09,01,44,0.10
2021,04,09,01,45,0.10
2021,04,09,01,46,0.00
2021,04,09,01,47,0.00
2021,04,09,01,48,0.00
2021,04,09,01,49,0.00
2021,04,09,01,50,0.00
2021,04,09,01,51,0.00
2021,04,09,01,52,0.00
2021,04,09,01,53,0.00
2021,04,09,01,54,0.00
2021,04,09,01,55,0.00
2021,04,09,01,56,0.00
2021,04,09,01,57,0.00
2021,04,09,01,58,0.00
2021,04,09,01,59,0.00
2021,04,09,02,00,0.30
2021,04,09,02,01,2.40
2021,04,09,02,02,2.80
2021,04,09,02,03,3.00
2021,04,09,02,04,3.10
2021,04,09,02,05,3.70
2021,04,09,02,06,4.90
2021,04,09,02,07,6.30
2021,04,09,02,08,7.00
2021,04,09,02,09,7.00
2021,04,09,02,10,4.30
2021,04,09,02,11,3.80
2021,04,09,02,12,4.00
2021,04,09,02,13,4.50
2021,04,09,02,14,4.70
2021,04,09,02,15,5.10
2021,04,09,02,16,4.90
2021,04,09,02,17,4.60
2021,04,09,02,18,5.40
2021,04,09,02,19,4.90
2021,04,09,02,20,5.10
2021,04,09,02,21,4.70
2021,04,09,02,22,5.40
2021,04,09,02,23,5.40
2021,04,09,02,24,6.50
2021,04,09,02,25,5.50
2021,04,09,02,26,5.90
2021,04,09,02,27,4.80
2021,04,09,02,28,3.30
2021,04,09,02,29,3.00
2021,04,09,02,30,3.70
2021,04,09,02,31,4.20
2021,04,09,02,32,5.00
2021,04,09,02,33,4.90
2021,04,09,02,34,5.20
2021,04,09,02,35,5.50
2021,04,09,02,36,4.10
2021,04,09,02,37,2.60
2021,04,09,02,38,3.60
2021,04,09,02,39,3.60
2021,04,09,02,40,3.20
2021,04,09,02,41,2.60
2021,04,09,02,42,3.40
2021,04,09,02,43,3.40
2021,04,09,02,44,2.70
2021,04,09,02,45,3.60
2021,04,09,02,46,1.90
2021,04,09,02,47,0.60
2021,04,09,02,48,1.10
2021,04,09,02,49,1.60
2021,04,09,02,50,4.20
2021,04,09,02,51,4.00
2021,04,09,02,52,3.30
2021,04,09,02,53,3.00
2021,04,09,02,54,3.70
2021,04,09,02,55,2.90
2021,04,09,02,56,1.90
2021,04,09,02,57,1.70
2021,04,09,02,58,1.10
2021,04,09,02,59,0.20
2021,04,09,03,00,0.50
2021,04,09,03,01,0.80
2021,04,09,03,02,0.20
2021,04,09,03,03,1.00
2021,04,09,03,04,2.20
2021,04,09,03,05,3.00
2021,04,09,03,06,2.10
2021,04,09,03,07,1.60
2021,04,09,03,08,2.30
2021,04,09,03,09,2.20
2021,04,09,03,10,1.80
2021,04,09,03,11,0.70
2021,04,09,03,12,0.90
2021,04,09,03,13,1.60
2021,04,09,03,14,0.90
2021,04,09,03,15,0.00
2021,04,09,03,16,0.00
2021,04,09,03,17,0.00
2021,04,09,03,18,0.00
2021,04,09,03,19,1.30
2021,04,09,03,20,0.80
2021,04,09,03,21,0.50
2021,04,09,03,22,0.10
2021,04,09,03,23,0.10
2021,04,09,03,24,1.40
2021,04,09,03,25,2.60
2021,04,09,03,26,4.20
2021,04,09,03,27,4.20
2021,04,09,03,28,3.10
2021,04,09,03,29,2.90
2021,04,09,03,30,3.60
2021,04,09,03,31,4.60
2021,04,09,03,32,4.50
2021,04,09,03,33,2.70
2021,04,09,03,34,2.90
2021,04,09,03,35,1.30
2021,04,09,03,36,2.00
2021,04,09,03,37,1.60
2021,04,09,03,38,2.60
2021,04,09,03,39,2.20
2021,04,09,03,40,4.50
2021,04,09,03,41,3.00
2021,04,09,03,42,4.00
2021,04,09,03,43,4.60
2021,04,09,03,44,4.80
2021,04,09,03,45,3.20
2021,04,09,03,46,2.90
2021,04,09,03,47,3.00
2021,04,09,03,48,1.90
2021,04,09,03,49,3.10
2021,04,09,03,50,1.40
2021,04,09,03,51,1.40
2021,04,09,03,52,4.70
2021,04,09,03,53,2.30
2021,04,09,03,54,3.00
2021,04,09,03,55,6.00
2021,04,09,03,56,5.50
2021,04,09,03,57,3.70
2021,04,09,03,58,2.80
2021,04,09,03,59,4.40
2021,04,09,04,00,5.00
2021,04,09,04,01,6.70
2021,04,09,04,02,5.60
2021,04,09,04,03,9.20
2021,04,09,04,04,6.60
2021,04,09,04,05,3.10
2021,04,09,04,06,7.70
2021,04,09,04,07,6.40
2021,04,09,04,08,4.90
2021,04,09,04,09,4.20
2021,04,09,04,10,3.60
2021,04,09,04,11,2.80
2021,04,09,04,12,4.20
2021,04,09,04,13,3.20
2021,04,09,04,14,3.40
2021,04,09,04,15,4.20
2021,04,09,04,16,5.10
2021,04,09,04,17,5.30
2021,04,09,04,18,4.70
2021,04,09,04,19,3.50
2021,04,09,04,20,4.90
2021,04,09,04,21,4.30
2021,04,09,04,22,7.70
2021,04,09,04,23,7.20
2021,04,09,04,24,4.90
2021,04,09,04,25,4.80
2021,04,09,04,26,4.20
2021,04,09,04,27,4.70
2021,04,09,04,28,6.60
2021,04,09,04,29,8.10
2021,04,09,04,30,5.80
2021,04,09,04,31,5.80
2021,04,09,04,32,7.30
2021,04,09,04,33,6.70
2021,04,09,04,34,6.90
2021,04,09,04,35,5.10
2021,04,09,04,36,3.90
2021,04,09,04,37,5.20
2021,04,09,04,38,5.40
2021,04,09,04,39,3.20
2021,04,09,04,40,2.60
2021,04,09,04,41,3.20
2021,04,09,04,42,4.00
2021,04,09,04,43,3.70
2021,04,09,04,44,2.80
2021,04,09,04,45,2.90
2021,04,09,04,46,3.30
2021,04,09,04,47,3.90
2021,04,09,04,48,3.30
2021,04,09,04,49,2.40
2021,04,09,04,50,2.80
2021,04,09,04,51,4.20
2021,04,09,04,52,0.70
2021,04,09,04,53,0.20
2021,04,09,04,54,1.30
2021,04,09,04,55,1.30
2021,04,09,04,56,3.00
2021,04,09,04,57,2.10
2021,04,09,04,58,3.60
2021,04,09,04,59,2.00
2021,04,09,05,00,3.50
2021,04,09,05,01,3.70
2021,04,09,05,02,2.30
2021,04,09,05,03,1.80
2021,04,09,05,04,3.40
2021,04,09,05,05,1.60
2021,04,09,05,06,2.10
2021,04,09,05,07,2.60
2021,04,09,05,08,2.70
2021,04,09,05,09,3.90
2021,04,09,05,10,3.30
2021,04,09,05,11,2.30
2021,04,09,05,12,2.70
2021,04,09,05,13,3.40
2021,04,09,05,14,2.90
2021,04,09,05,15,2.20
2021,04,09,05,16,2.20
2021,04,09,05,17,2.80
2021,04,09,05,18,2.80
2021,04,09,05,19,1.40
2021,04,09,05,20,1.60
2021,04,09,05,21,1.90
2021,04,09,05,22,1.20
2021,04,09,05,23,1.60
2021,04,09,05,24,2.70
2021,04,09,05,25,1.20
2021,04,09,05,26,2.10
2021,04,09,05,27,1.90
2021,04,09,05,28,2.00
2021,04,09,05,29,2.60
2021,04,09,05,30,3.80
2021,04,09,05,31,2.90
2021,04,09,05,32,4.00
2021,04,09,05,33,3.80
2021,04,09,05,34,4.90
2021,04,09,05,35,7.00
2021,04,09,05,36,5.80
2021,04,09,05,37,6.00
2021,04,09,05,38,5.10
2021,04,09,05,39,4.40
2021,04,09,05,40,4.60
2021,04,09,05,41,6.70
2021,04,09,05,42,5.70
2021,04,09,05,43,5.40
2021,04,09,05,44,4.70
2021,04,09,05,45,6.30
2021,04,09,05,46,10.40
2021,04,09,05,47,10.40
2021,04,09,05,48,7.40
2021,04,09,05,49,6.90
2021,04,09,05,50,8.90
2021,04,09,05,51,9.30
2021,04,09,05,52,10.70
2021,04,09,05,53,10.70
2021,04,09,05,54,11.30
2021,04,09,05,55,12.20
2021,04,09,05,56,10.10
2021,04,09,05,57,8.20
2021,04,09,05,58,9.80
2021,04,09,05,59,12.80
2021,04,09,06,00,13.40
2021,04,09,06,01,14.40
2021,04,09,06,02,15.40
2021,04,09,06,03,16.60
2021,04,09,06,04,17.30
2021,04,09,06,05,15.60
2021,04,09,06,06,17.60
2021,04,09,06,07,16.70
2021,04,09,06,08,15.10
2021,04,09,06,09,16.90
2021,04,09,06,10,16.50
2021,04,09,06,11,13.40
2021,04,09,06,12,14.50
2021,04,09,06,13,13.50
2021,04,09,06,14,16.20
2021,04,09,06,15,18.10
2021,04,09,06,16,18.20
2021,04,09,06,17,13.30
2021,04,09,06,18,7.90
2021,04,09,06,19,10.30
2021,04,09,06,20,10.50
2021,04,09,06,21,14.00
2021,04,09,06,22,13.10
2021,04,09,06,23,13.70
2021,04,09,06,24,17.50
2021,04,09,06,25,15.00
2021,04,09,06,26,13.90
2021,04,09,06,27,17.30
2021,04,09,06,28,14.40
2021,04,09,06,29,12.30
2021,04,09,06,30,17.50
2021,04,09,06,31,13.90
2021,04,09,06,32,16.30
2021,04,09,06,33,14.40
2021,04,09,06,34,17.30
2021,04,09,06,35,15.80
2021,04,09,06,36,13.70
2021,04,09,06,37,13.20
2021,04,09,06,38,17.50
2021,04,09,06,39,17.30
2021,04,09,06,40,15.40
2021,04,09,06,41,14.60
2021,04,09,06,42,11.70
2021,04,09,06,43,13.30
2021,04,09,06,44,16.20
2021,04,09,06,45,15.90
2021,04,09,06,46,13.70
2021,04,09,06,47,21.10
2021,04,09,06,48,19.30
2021,04,09,06,49,20.60
2021,04,09,06,50,21.60
2021,04,09,06,51,16.60
2021,04,09,06,52,13.70
2021,04,09,06,53,14.00
2021,04,09,06,54,21.40
2021,04,09,06,55,22.00
2021,04,09,06,56,19.40
2021,04,09,06,57,17.60
2021,04,09,06,58,19.50
2021,04,09,06,59,15.00
2021,04,09,07,00,18.70
2021,04,09,07,01,19.10
2021,04,09,07,02,17.80
2021,04,09,07,03,22.20
2021,04,09,07,04,22.90
2021,04,09,07,05,19.20
2021,04,09,07,06,17.10
2021,04,09,07,07,18.70
2021,04,09,07,08,16.80
2021,04,09,07,09,21.80
2021,04,09,07,10,17.70
2021,04,09,07,11,11.70
2021,04,09,07,12,15.60
2021,04,09,07,13,17.50
2021,04,09,07,14,14.10
2021,04,09,07,15,16.00
2021,04,09,07,16,11.90
2021,04,09,07,17,13.10
2021,04,09,07,18,11.60
2021,04,09,07,19,14.50
2021,04,09,07,20,11.70
2021,04,09,07,21,15.60
2021,04,09,07,22,18.20
2021,04,09,07,23,13.80
2021,04,09,07,24,15.20
2021,04,09,07,25,16.20
2021,04,09,07,26,12.40
2021,04,09,07,27,19.50
2021,04,09,07,28,14.40
2021,04,09,07,29,12.30
2021,04,09,07,30,15.20
2021,04,09,07,31,14.30
2021,04,09,07,32,13.40
2021,04,09,07,33,18.50
2021,04,09,07,34,15.00
2021,04,09,07,35,13.10
2021,04,09,07,36,12.50
2021,04,09,07,37,13.40
2021,04,09,07,38,9.30
2021,04,09,07,39,13.60
2021,04,09,07,40,15.70
2021,04,09,07,41,11.50
2021,04,09,07,42,10.30
2021,04,09,07,43,11.30
2021,04,09,07,44,11.80
2021,04,09,07,45,12.60
2021,04,09,07,46,14.20
2021,04,09,07,47,10.00
2021,04,09,07,48,13.80
2021,04,09,07,49,12.20
2021,04,09,07,50,11.30
2021,04,09,07,51,11.40
2021,04,09,07,52,13.10
2021,04,09,07,53,13.20
2021,04,09,07,54,10.70
2021,04,09,07,55,12.00
2021,04,09,07,56,12.20
2021,04,09,07,57,14.70
2021,04,09,07,58,14.70
2021,04,09,07,59,13.80
2021,04,09,08,00,15.60
2021,04,09,08,01,11.20
2021,04,09,08,02,15.30
2021,04,09,08,03,11.00
2021,04,09,08,04,16.70
2021,04,09,08,05,12.00
2021,04,09,08,06,11.70
2021,04,09,08,07,9.80
2021,04,09,08,08,11.00
2021,04,09,08,09,14.70
2021,04,09,08,10,15.60
2021,04,09,08,11,15.90
2021,04,09,08,12,14.00
2021,04,09,08,13,11.70
2021,04,09,08,14,23.20
2021,04,09,08,15,14.50
2021,04,09,08,16,14.70
2021,04,09,08,17,15.70
2021,04,09,08,18,13.10
2021,04,09,08,19,14.20
2021,04,09,08,20,13.70
2021,04,09,08,21,15.30
2021,04,09,08,22,11.60
2021,04,09,08,23,16.60
2021,04,09,08,24,21.00
2021,04,09,08,25,17.30
2021,04,09,08,26,15.80
2021,04,09,08,27,14.80
2021,04,09,08,28,15.50
2021,04,09,08,29,16.10
2021,04,09,08,30,21.30
2021,04,09,08,31,19.80
2021,04,09,08,32,16.80
2021,04,09,08,33,23.00
2021,04,09,08,34,22.80
2021,04,09,08,35,20.10
2021,04,09,08,36,17.50
2021,04,09,08,37,13.50
2021,04,09,08,38,19.30
2021,04,09,08,39,18.40
2021,04,09,08,40,16.90
2021,04,09,08,41,18.70
2021,04,09,08,42,16.00
2021,04,09,08,43,21.30
2021,04,09,08,44,16.30
2021,04,09,08,45,14.70
2021,04,09,08,46,15.60
2021,04,09,08,47,14.00
2021,04,09,08,48,15.90
2021,04,09,08,49,15.20
2021,04,09,08,50,17.90
2021,04,09,08,51,14.80
2021,04,09,08,52,14.10
2021,04,09,08,53,15.10
2021,04,09,08,54,16.60
2021,04,09,08,55,17.50
2021,04,09,08,56,15.10
2021,04,09,08,57,14.00
2021,04,09,08,58,18.80
2021,04,09,08,59,19.70
2021,04,09,09,00,22.00
2021,04,09,09,01,19.40
2021,04,09,09,02,20.30
2021,04,09,09,03,15.60
2021,04,09,09,04,18.30
2021,04,09,09,05,14.20
2021,04,09,09,06,18.80
2021,04,09,09,07,17.10
2021,04,09,09,08,17.80
2021,04,09,09,09,12.20
2021,04,09,09,10,15.10
2021,04,09,09,11,16.60
2021,04,09,09,12,22.40
2021,04,09,09,13,17.20
2021,04,09,09,14,17.20
2021,04,09,09,15,20.00
2021,04,09,09,16,16.00
2021,04,09,09,17,14.60
2021,04,09,09,18,17.10
2021,04,09,09,19,19.00
2021,04,09,09,20,16.60
2021,04,09,09,21,24.50
2021,04,09,09,22,18.00
2021,04,09,09,23,22.10
2021,04,09,09,24,19.80
2021,04,09,09,25,20.00
2021,04,09,09,26,21.20
2021,04,09,09,27,24.00
2021,04,09,09,28,17.40
2021,04,09,09,29,23.80
2021,04,09,09,30,24.40
2021,04,09,09,31,19.30
2021,04,09,09,32,18.60
2021,04,09,09,33,23.20
2021,04,09,09,34,18.70
2021,04,09,09,35,17.10
2021,04,09,09,36,17.70
2021,04,09,09,37,14.70
2021,04,09,09,38,18.70
2021,04,09,09,39,18.70
2021,04,09,09,40,18.70
2021,04,09,09,41,15.30
2021,04,09,09,42,18.50
2021,04,09,09,43,17.10
2021,04,09,09,44,27.80
2021,04,09,09,45,25.50
2021,04,09,09,46,26.30
2021,04,09,09,47,26.10
2021,04,09,09,48,24.60
2021,04,09,09,49,23.60
2021,04,09,09,50,23.00
2021,04,09,09,51,24.60
2021,04,09,09,52,29.30
2021,04,09,09,53,24.00
2021,04,09,09,54,27.80
2021,04,09,09,55,25.70
2021,04,09,09,56,30.20
2021,04,09,09,57,26.70
2021,04,09,09,58,26.80
2021,04,09,09,59,33.50
2021,04,09,10,00,34.50
2021,04,09,10,01,27.70
2021,04,09,10,02,29.20
2021,04,09,10,03,36.00
2021,04,09,10,04,31.80
2021,04,09,10,05,30.90
2021,04,09,10,06,33.00
2021,04,09,10,07,34.40
2021,04,09,10,08,33.70
2021,04,09,10,09,33.50
2021,04,09,10,10,40.20
2021,04,09,10,11,38.10
2021,04,09,10,12,32.10
2021,04,09,10,13,37.80
2021,04,09,10,14,37.30
2021,04,09,10,15,32.40
2021,04,09,10,16,36.80
2021,04,09,10,17,28.30
2021,04,09,10,18,28.40
2021,04,09,10,19,32.70
2021,04,09,10,20,27.50
2021,04,09,10,21,36.90
2021,04,09,10,22,34.40
2021,04,09,10,23,32.60
2021,04,09,10,24,32.60
2021,04,09,10,25,33.30
2021,04,09,10,26,31.70
2021,04,09,10,27,33.70
2021,04,09,10,28,36.60
2021,04,09,10,29,34.10
2021,04,09,10,30,39.70
2021,04,09,10,31,31.70
2021,04,09,10,32,35.40
2021,04,09,10,33,32.20
2021,04,09,10,34,32.20
2021,04,09,10,35,35.40
2021,04,09,10,36,37.40
2021,04,09,10,37,39.40
2021,04,09,10,38,33.60
2021,04,09,10,39,41.50
2021,04,09,10,40,30.70
2021,04,09,10,41,40.30
2021,04,09,10,42,36.70
2021,04,09,10,43,42.50
2021,04,09,10,44,35.90
2021,04,09,10,45,38.80
2021,04,09,10,46,38.00
2021,04,09,10,47,37.30
2021,04,09,10,48,32.70
2021,04,09,10,49,41.40
2021,04,09,10,50,39.10
2021,04,09,10,51,34.30
2021,04,09,10,52,36.00
2021,04,09,10,53,44.80
2021,04,09,10,54,37.30
2021,04,09,10,55,34.70
2021,04,09,10,56,34.30
2021,04,09,10,57,28.10
2021,04,09,10,58,38.70
2021,04,09,10,59,39.20
2021,04,09,11,00,35.30
2021,04,09,11,01,37.30
2021,04,09,11,02,29.50
2021,04,09,11,03,36.50
2021,04,09,11,04,37.20
2021,04,09,11,05,28.40
2021,04,09,11,06,35.20
2021,04,09,11,07,34.30
2021,04,09,11,08,28.90
2021,04,09,11,09,33.00
2021,04,09,11,10,33.90
2021,04,09,11,11,31.90
2021,04,09,11,12,32.90
2021,04,09,11,13,27.80
2021,04,09,11,14,36.30
2021,04,09,11,15,38.40
2021,04,09,11,16,32.50
2021,04,09,11,17,36.50
2021,04,09,11,18,36.60
2021,04,09,11,19,37.40
2021,04,09,11,20,31.50
2021,04,09,11,21,33.70
2021,04,09,11,22,32.10
2021,04,09,11,23,27.20
2021,04,09,11,24,28.50
2021,04,09,11,25,38.60
2021,04,09,11,26,30.80
2021,04,09,11,27,27.20
2021,04,09,11,28,34.70
2021,04,09,11,29,40.60
2021,04,09,11,30,35.80
2021,04,09,11,31,35.30
2021,04,09,11,32,32.20
2021,04,09,11,33,38.60
2021,04,09,11,34,43.50
2021,04,09,11,35,32.50
2021,04,09,11,36,25.90
2021,04,09,11,37,37.50
2021,04,09,11,38,31.10
2021,04,09,11,39,33.70
2021,04,09,11,40,31.00
2021,04,09,11,41,36.20
2021,04,09,11,42,30.60
2021,04,09,11,43,31.20
2021,04,09,11,44,33.30
2021,04,09,11,45,33.00
2021,04,09,11,46,31.80
2021,04,09,11,47,30.80
2021,04,09,11,48,31.60
2021,04,09,11,49,32.40
2021,04,09,11,50,35.80
2021,04,09,11,51,31.10
2021,04,09,11,52,24.70
2021,04,09,11,53,27.90
2021,04,09,11,54,34.30
2021,04,09,11,55,25.00
2021,04,09,11,56,25.20
2021,04,09,11,57,29.90
2021,04,09,11,58,31.40
2021,04,09,11,59,35.90
2021,04,09,12,00,26.10
2021,04,09,12,01,32.50
2021,04,09,12,02,28.00
2021,04,09,12,03,35.40
2021,04,09,12,04,29.80
2021,04,09,12,05,31.20
2021,04,09,12,06,29.20
2021,04,09,12,07,34.20
2021,04,09,12,08,38.80
2021,04,09,12,09,30.70
2021,04,09,12,10,27.90
2021,04,09,12,11,27.90
2021,04,09,12,12,31.60
2021,04,09,12,13,31.30
2021,04,09,12,14,31.40
2021,04,09,12,15,31.60
2021,04,09,12,16,37.10
2021,04,09,12,17,36.00
2021,04,09,12,18,33.90
2021,04,09,12,19,34.00
2021,04,09,12,20,33.20
2021,04,09,12,21,32.40
2021,04,09,12,22,36.70
2021,04,09,12,23,38.30
2021,04,09,12,24,35.20
2021,04,09,12,25,33.20
2021,04,09,12,26,31.10
2021,04,09,12,27,31.10
2021,04,09,12,28,35.70
2021,04,09,12,29,38.60
2021,04,09,12,30,37.10
2021,04,09,12,31,38.00
2021,04,09,12,32,41.00
2021,04,09,12,33,44.00
2021,04,09,12,34,32.90
2021,04,09,12,35,34.80
2021,04,09,12,36,43.70
2021,04,09,12,37,38.90
2021,04,09,12,38,40.10
2021,04,09,12,39,39.90
2021,04,09,12,40,43.60
2021,04,09,12,41,40.10
2021,04,09,12,42,40.70
2021,04,09,12,43,39.40
2021,04,09,12,44,30.50
2021,04,09,12,45,30.20
2021,04,09,12,46,29.40
2021,04,09,12,47,35.60
2021,04,09,12,48,30.00
2021,04,09,12,49,30.30
2021,04,09,12,50,35.80
2021,04,09,12,51,30.20
2021,04,09,12,52,35.00
2021,04,09,12,53,29.60
2021,04,09,12,54,29.80
2021,04,09,12,55,33.10
2021,04,09,12,56,27.80
2021,04,09,12,57,34.40
2021,04,09,12,58,35.00
2021,04,09,12,59,35.40
2021,04,09,13,00,33.30
2021,04,09,13,01,36.70
2021,04,09,13,02,35.40
2021,04,09,13,03,35.60
2021,04,09,13,04,37.80
2021,04,09,13,05,42.90
2021,04,09,13,06,43.70
2021,04,09,13,07,39.70
2021,04,09,13,08,37.00
2021,04,09,13,09,31.70
2021,04,09,13,10,39.20
2021,04,09,13,11,44.90
2021,04,09,13,12,39.50
2021,04,09,13,13,41.10
2021,04,09,13,14,33.50
2021,04,09,13,15,37.70
2021,04,09,13,16,35.90
2021,04,09,13,17,39.60
2021,04,09,13,18,37.30
2021,04,09,13,19,32.90
2021,04,09,13,20,27.90
2021,04,09,13,21,29.20
2021,04,09,13,22,33.60
2021,04,09,13,23,36.70
2021,04,09,13,24,37.20
2021,04,09,13,25,31.00
2021,04,09,13,26,35.50
2021,04,09,13,27,39.40
2021,04,09,13,28,35.80
2021,04,09,13,29,48.60
2021,04,09,13,30,38.50
2021,04,09,13,31,36.10
2021,04,09,13,32,39.20
2021,04,09,13,33,42.90
2021,04,09,13,34,37.20
2021,04,09,13,35,32.20
2021,04,09,13,36,40.70
2021,04,09,13,37,33.40
2021,04,09,13,38,31.70
2021,04,09,13,39,25.20
2021,04,09,13,40,33.70
2021,04,09,13,41,41.50
2021,04,09,13,42,35.60
2021,04,09,13,43,31.90
2021,04,09,13,44,27.10
2021,04,09,13,45,29.40
2021,04,09,13,46,25.70
2021,04,09,13,47,35.50
2021,04,09,13,48,27.00
2021,04,09,13,49,29.30
2021,04,09,13,50,41.70
2021,04,09,13,51,30.30
2021,04,09,13,52,30.50
2021,04,09,13,53,28.10
2021,04,09,13,54,21.50
2021,04,09,13,55,30.00
2021,04,09,13,56,27.30
2021,04,09,13,57,38.70
2021,04,09,13,58,31.50
2021,04,09,13,59,35.50
2021,04,09,14,00,39.20
2021,04,09,14,01,33.60
2021,04,09,14,02,43.90
2021,04,09,14,03,38.30
2021,04,09,14,04,32.80
2021,04,09,14,05,32.30
2021,04,09,14,06,29.20
2021,04,09,14,07,20.80
2021,04,09,14,08,18.10
2021,04,09,14,09,22.60
2021,04,09,14,10,19.70
2021,04,09,14,11,24.70
2021,04,09,14,12,15.90
2021,04,09,14,13,23.70
2021,04,09,14,14,22.30
2021,04,09,14,15,23.40
2021,04,09,14,16,20.40
2021,04,09,14,17,26.30
2021,04,09,14,18,14.40
2021,04,09,14,19,17.30
2021,04,09,14,20,25.40
2021,04,09,14,21,28.30
2021,04,09,14,22,36.40
2021,04,09,14,23,27.00
2021,04,09,14,24,16.50
2021,04,09,14,25,16.50
2021,04,09,14,26,24.90
2021,04,09,14,27,21.70
2021,04,09,14,28,19.00
2021,04,09,14,29,19.70
2021,04,09,14,30,32.80
2021,04,09,14,31,21.20
2021,04,09,14,32,21.30
2021,04,09,14,33,16.90
2021,04,09,14,34,19.30
2021,04,09,14,35,16.70
2021,04,09,14,36,20.50
2021,04,09,14,37,17.20
2021,04,09,14,38,15.10
2021,04,09,14,39,22.30
2021,04,09,14,40,22.00
2021,04,09,14,41,16.70
2021,04,09,14,42,15.00
2021,04,09,14,43,10.80
2021,04,09,14,44,12.50
2021,04,09,14,45,13.20
2021,04,09,14,46,23.50
2021,04,09,14,47,26.20
2021,04,09,14,48,17.80
2021,04,09,14,49,19.90
2021,04,09,14,50,22.00
2021,04,09,14,51,16.10
2021,04,09,14,52,10.70
2021,04,09,14,53,12.00
2021,04,09,14,54,9.80
2021,04,09,14,55,16.40
2021,04,09,14,56,19.80
2021,04,09,14,57,16.60
2021,04,09,14,58,14.10
2021,04,09,14,59,17.10
2021,04,09,15,00,14.30
2021,04,09,15,01,18.40
2021,04,09,15,02,20.10
2021,04,09,15,03,17.00
2021,04,09,15,04,19.80
2021,04,09,15,05,14.70
2021,04,09,15,06,13.70
2021,04,09,15,07,13.20
2021,04,09,15,08,11.30
2021,04,09,15,09,11.30
2021,04,09,15,10,10.60
2021,04,09,15,11,11.80
2021,04,09,15,12,9.80
2021,04,09,15,13,10.30
2021,04,09,15,14,10.20
2021,04,09,15,15,11.70
2021,04,09,15,16,8.90
2021,04,09,15,17,10.00
2021,04,09,15,18,8.20
2021,04,09,15,19,9.80
2021,04,09,15,20,6.20
2021,04,09,15,21,8.80
2021,04,09,15,22,16.30
2021,04,09,15,23,16.20
2021,04,09,15,24,14.30
2021,04,09,15,25,16.10
2021,04,09,15,26,15.80
2021,04,09,15,27,15.90
2021,04,09,15,28,21.70
2021,04,09,15,29,19.10
2021,04,09,15,30,16.00
2021,04,09,15,31,20.60
2021,04,09,15,32,14.00
2021,04,09,15,33,14.70
2021,04,09,15,34,16.60
2021,04,09,15,35,18.60
2021,04,09,15,36,17.50
2021,04,09,15,37,20.00
2021,04,09,15,38,16.00
2021,04,09,15,39,19.60
2021,04,09,15,40,16.90
2021,04,09,15,41,18.30
2021,04,09,15,42,18.00
2021,04,09,15,43,18.60
2021,04,09,15,44,13.50
2021,04,09,15,45,22.80
2021,04,09,15,46,17.20
2021,04,09,15,47,16.60
2021,04,09,15,48,16.30
2021,04,09,15,49,14.50
2021,04,09,15,50,16.70
2021,04,09,15,51,20.60
2021,04,09,15,52,19.50
2021,04,09,15,53,20.70
2021,04,09,15,54,17.80
2021,04,09,15,55,17.40
2021,04,09,15,56,12.60
2021,04,09,15,57,18.30
2021,04,09,15,58,20.30
2021,04,09,15,59,18.70
2021,04,09,16,00,17.40
2021,04,09,16,01,19.20
2021,04,09,16,02,14.80
2021,04,09,16,03,17.30
2021,04,09,16,04,16.60
2021,04,09,16,05,21.90
2021,04,09,16,06,15.10
2021,04,09,16,07,20.50
2021,04,09,16,08,14.30
2021,04,09,16,09,17.40
2021,04,09,16,10,20.40
2021,04,09,16,11,22.10
2021,04,09,16,12,18.40
2021,04,09,16,13,22.10
2021,04,09,16,14,19.30
2021,04,09,16,15,15.30
2021,04,09,16,16,17.00
2021,04,09,16,17,17.30
2021,04,09,16,18,21.70
2021,04,09,16,19,17.00
2021,04,09,16,20,16.40
2021,04,09,16,21,19.20
2021,04,09,16,22,16.40
2021,04,09,16,23,18.30
2021,04,09,16,24,15.90
2021,04,09,16,25,13.10
2021,04,09,16,26,8.00
2021,04,09,16,27,16.60
2021,04,09,16,28,16.30
2021,04,09,16,29,15.30
2021,04,09,16,30,14.20
2021,04,09,16,31,15.60
2021,04,09,16,32,16.70
2021,04,09,16,33,17.00
2021,04,09,16,34,14.40
2021,04,09,16,35,8.00
2021,04,09,16,36,15.70
2021,04,09,16,37,14.20
2021,04,09,16,38,13.60
2021,04,09,16,39,18.60
2021,04,09,16,40,11.90
2021,04,09,16,41,14.10
2021,04,09,16,42,14.50
2021,04,09,16,43,17.10
2021,04,09,16,44,12.50
2021,04,09,16,45,15.00
2021,04,09,16,46,18.60
2021,04,09,16,47,11.60
2021,04,09,16,48,11.50
2021,04,09,16,49,14.20
2021,04,09,16,50,11.90
2021,04,09,16,51,12.30
2021,04,09,16,52,14.50
2021,04,09,16,53,9.40
2021,04,09,16,54,10.70
2021,04,09,16,55,9.90
2021,04,09,16,56,9.20
2021,04,09,16,57,11.00
2021,04,09,16,58,11.00
2021,04,09,16,59,12.80
2021,04,09,17,00,12.00
2021,04,09,17,01,7.50
2021,04,09,17,02,5.50
2021,04,09,17,03,4.00
2021,04,09,17,04,4.50
2021,04,09,17,05,6.20
2021,04,09,17,06,3.90
2021,04,09,17,07,4.50
2021,04,09,17,08,4.90
2021,04,09,17,09,3.90
2021,04,09,17,10,6.60
2021,04,09,17,11,5.70
2021,04,09,17,12,7.20
2021,04,09,17,13,5.70
2021,04,09,17,14,2.30
2021,04,09,17,15,5.40
2021,04,09,17,16,9.40
2021,04,09,17,17,9.40
2021,04,09,17,18,9.70
2021,04,09,17,19,8.10
2021,04,09,17,20,7.30
2021,04,09,17,21,9.70
2021,04,09,17,22,6.80
2021,04,09,17,23,7.90
2021,04,09,17,24,6.90
2021,04,09,17,25,8.20
2021,04,09,17,26,5.10
2021,04,09,17,27,4.30
2021,04,09,17,28,6.20
2021,04,09,17,29,6.00
2021,04,09,17,30,6.10
2021,04,09,17,31,4.00
2021,04,09,17,32,4.90
2021,04,09,17,33,5.60
2021,04,09,17,34,5.30
2021,04,09,17,35,3.60
2021,04,09,17,36,5.10